map of DZN home
Great Circle Mapper logo
DZN - Airport
Location
City:  Zhezkazgan, Kazakhstan
Near (Alt.):Dzezkazgan
ICAO / IATA:UAKD / DZN

Details
Type:Airport (Aerodrome, Airfield)
Use:Public/Civil
Latitude:4742'30"N (47.708333)
Longitude:6744'00"E (67.733333)
Elevation:1250 ft (381 m)
Runways:1
Longest:8530 × 138 ft (2600 × 42 m), paved

Weather
METAR:UAKD 231100Z 09008MPS 7000 BKN100 24/M04 Q1015 R220///65 NOSIG RMK QFE728/0971

Related Locations
Nearby:
Farthest:IPC: 11005 mi / 17711 km
Easter Island (Isla de Pascua, Rapa Nui) [Mataveri Intl], VS, CL

Find:

   beyond  
but within

Other Information
Maps:
NOTAMs:
Links:
Sources:

  
flag of Kazakhstan   

Sectional Chart

Flight Planning
at skyvector.com

Satellite Image

Google Maps Satellite View

 

Copyright © 2004-2014 Karl L. Swartz. All rights reserved.
The Great Circle Mapper name and logo are trademarks of the Great Circle Mapper.
All other trademarks mentioned herein belong to their respective owners.
Please see credits for attibutions and further copyright information.

  Follow gcmap on Facebook Follow gcmap on Twitter

hCard Microformat

Geo Microformat